TimeEDT,TemperatureF,Dew PointF,Humidity,Sea Level PressureIn,VisibilityMPH,Wind Direction,Wind SpeedMPH,Gust SpeedMPH,PrecipitationIn,Events,Conditions,WindDirDegrees,DateUTC
12:53 AM,55.9,54.0,93,30.16,8.0,Calm,Calm,-,N/A,,Clear,0,2012-10-24 04:53:00
1:53 AM,55.0,53.1,93,30.15,7.0,Calm,Calm,-,N/A,,Clear,0,2012-10-24 05:53:00
2:33 AM,55.4,51.8,88,30.15,7.0,Calm,Calm,-,N/A,,Scattered Clouds,0,2012-10-24 06:33:00
2:43 AM,55.4,51.8,88,30.15,8.0,Calm,Calm,-,N/A,,Mostly Cloudy,0,2012-10-24 06:43:00
2:53 AM,55.0,52.0,89,30.15,7.0,Calm,Calm,-,N/A,,Overcast,0,2012-10-24 06:53:00
3:53 AM,54.0,52.0,93,30.14,6.0,Calm,Calm,-,N/A,,Overcast,0,2012-10-24 07:53:00
4:39 AM,53.6,51.8,94,30.14,1.5,Calm,Calm,-,N/A,,Overcast,0,2012-10-24 08:39:00
4:50 AM,53.6,51.8,94,30.15,2.0,Calm,Calm,-,N/A,,Overcast,0,2012-10-24 08:50:00
4:53 AM,54.0,52.0,93,30.14,1.5,Calm,Calm,-,N/A,,Overcast,0,2012-10-24 08:53:00
5:01 AM,53.6,53.6,100,30.15,0.5,Calm,Calm,-,N/A,Fog,Fog,0,2012-10-24 09:01:00
5:53 AM,54.0,52.0,93,30.16,0.8,Calm,Calm,-,N/A,,Mist,0,2012-10-24 09:53:00
5:57 AM,53.6,51.8,94,30.17,2.0,Calm,Calm,-,N/A,,Overcast,0,2012-10-24 09:57:00
6:05 AM,53.6,51.8,94,30.17,7.0,Calm,Calm,-,N/A,,Overcast,0,2012-10-24 10:05:00
6:53 AM,53.1,51.1,93,30.17,7.0,Calm,Calm,-,N/A,,Overcast,0,2012-10-24 10:53:00
7:51 AM,51.8,51.8,100,30.19,2.5,Calm,Calm,-,N/A,,Overcast,0,2012-10-24 11:51:00
7:53 AM,52.0,51.1,97,30.19,2.5,Calm,Calm,-,N/A,,Overcast,0,2012-10-24 11:53:00
8:00 AM,51.8,51.8,100,30.19,4.0,Calm,Calm,-,N/A,,Overcast,0,2012-10-24 12:00:00
8:53 AM,55.0,53.1,93,30.20,6.0,Calm,Calm,-,N/A,,Overcast,0,2012-10-24 12:53:00
9:53 AM,63.0,57.9,84,30.20,10.0,Calm,Calm,-,N/A,,Clear,0,2012-10-24 13:53:00
10:53 AM,73.0,60.1,64,30.19,10.0,NE,4.6,-,N/A,,Clear,40,2012-10-24 14:53:00
11:53 AM,77.0,57.9,52,30.18,10.0,NE,4.6,-,N/A,,Clear,40,2012-10-24 15:53:00
12:53 PM,79.0,57.9,48,30.16,10.0,NNE,4.6,-,N/A,,Clear,20,2012-10-24 16:53:00
1:53 PM,81.0,57.0,44,30.12,10.0,ENE,3.5,-,N/A,,Clear,70,2012-10-24 17:53:00
3:53 PM,81.0,57.0,44,30.09,10.0,ENE,4.6,-,N/A,,Clear,70,2012-10-24 19:53:00
4:53 PM,80.1,55.9,43,30.09,10.0,Calm,Calm,-,N/A,,Clear,0,2012-10-24 20:53:00
5:53 PM,79.0,57.0,47,30.08,10.0,East,3.5,-,N/A,,Clear,90,2012-10-24 21:53:00
6:53 PM,72.0,60.1,66,30.09,10.0,Calm,Calm,-,N/A,,Clear,0,2012-10-24 22:53:00
7:53 PM,68.0,60.1,76,30.11,10.0,Calm,Calm,-,N/A,,Clear,0,2012-10-24 23:53:00
8:53 PM,63.0,59.0,87,30.12,10.0,Calm,Calm,-,N/A,,Clear,0,2012-10-25 00:53:00
9:53 PM,66.0,59.0,78,30.13,10.0,ESE,3.5,-,N/A,,Clear,120,2012-10-25 01:53:00
10:53 PM,64.9,60.1,84,30.13,10.0,Calm,Calm,-,N/A,,Clear,0,2012-10-25 02:53:00
11:53 PM,62.1,59.0,90,30.12,10.0,Calm,Calm,-,N/A,,Clear,0,2012-10-25 03:53:00